Flag for Germany Weather past 2 weeks in Gross-Gerau, Hesse, Germany

Now
55 °F

Clear.


Feels Like: 55 °F
Forecast: 46 / 65 °F
Wind: 2 mph from South

Location: Frankfurt-M-Flughafen Airport

Current Time: Aug 23, 2014 at 4:04:28 AM

Latest Report: Aug 23, 2014 at 3:20 AM


Visibility: 10 mi

Pressure: 29.92 "Hg

Humidity: 77%

Dew point: 48 °F

Location of Gross-GerauLocation

Historic Weather in Gross-Gerau — Graph

°F

Gross-Gerau temperature yesterday

Maximum temperature yesterday: 70 °F (at 4:50 PM)
Minimum temperature yesterday: 46 °F (at 3:50 AM)
Average temperature yesterday: 59 °F

Past Weeks' High & Low Weather Summary

 TemperatureHumidityPressure
High82 °F (Aug 8, 2:50 PM)100% (Aug 10, 7:20 AM)30.09 "Hg (Aug 10, 7:20 AM)
Low46 °F (Aug 20, 5:20 AM)33% (Aug 12, 6:20 PM)29.65 "Hg (Aug 13, 2:20 PM)
Average63 °F73%29.91 "Hg
* Reported Aug 8 2:20 AM — Aug 23 2:50 AM, Gross-Gerau, Weather by CustomWeather, © 2014

Note: Actual official high and low records may vary slightly from our data, if they occured in-between our weather recording intervals... More about our weather records

Advertising

Gross-Gerau weather history for previous 24 hours

 ConditionsComfort  
Time TempWeatherWind HumidityBarometerVisibility
2:50 AM
Aug 23
55 °FClear.3 mph77%29.92 "Hg10 mi
2:20 AM55 °FClear.3 mph77%29.92 "Hg10 mi
1:50 AM57 °FClear.5 mph72%29.95 "Hg10 mi
1:20 AM57 °FClear.3 mph72%29.95 "Hg10 mi
12:50 AM57 °FClear.5 mph72%29.92 "Hg10 mi
12:20 AM59 °FClear.6 mph68%29.92 "Hg10 mi
11:50 PM
Aug 22
59 °FClear.7 mph63%29.95 "Hg10 mi
11:20 PM61 °FClear.7 mph59%29.92 "Hg10 mi
10:50 PM63 °FClear.7 mph56%29.92 "Hg10 mi
10:20 PM63 °FClear.9 mph56%29.92 "Hg10 mi
9:50 PM63 °FClear.8 mph56%29.92 "Hg10 mi
9:20 PM64 °FSunny.7 mph52%29.92 "Hg10 mi
8:50 PM64 °FSunny.8 mph49%29.92 "Hg10 mi
8:20 PM66 °FSunny.8 mph46%29.92 "Hg10 mi
7:50 PM66 °FSunny.8 mph46%29.92 "Hg10 mi
7:20 PM66 °FSunny.8 mph46%29.92 "Hg10 mi
6:50 PM66 °FSunny.9 mph46%29.92 "Hg10 mi
6:20 PM66 °FSunny.8 mph43%29.92 "Hg10 mi
5:50 PM66 °FSunny.12 mph40%29.92 "Hg10 mi
5:20 PM68 °FSunny.15 mph35%29.92 "Hg10 mi
4:50 PM70 °FSunny.13 mph33%29.92 "Hg10 mi
4:20 PM68 °FSunny.14 mph43%29.95 "Hg10 mi
3:50 PM68 °FSunny.15 mph40%29.95 "Hg10 mi
3:20 PM68 °FSunny.13 mph35%29.95 "Hg10 mi
2:50 PM68 °FSunny.13 mph40%29.95 "Hg10 mi
2:20 PM68 °FBroken clouds.12 mph43%29.95 "HgN/A
1:50 PM66 °FBroken clouds.9 mph46%29.95 "HgN/A
1:20 PM66 °FBroken clouds.10 mph52%29.98 "HgN/A
12:50 PM66 °FPartly sunny.12 mph49%29.98 "HgN/A
12:20 PM64 °FPartly sunny.12 mph52%29.98 "HgN/A
11:50 AM63 °FBroken clouds.9 mph59%29.98 "HgN/A
11:20 AM63 °FPartly sunny.7 mph59%29.98 "HgN/A
10:50 AM61 °FSunny.6 mph68%30.01 "Hg10 mi
10:20 AM57 °FSunny.7 mph67%30.01 "Hg10 mi
9:50 AM55 °FSunny.7 mph77%30.01 "Hg10 mi
9:20 AM55 °FSunny.6 mph77%30.01 "Hg10 mi
8:50 AM54 °FSunny.7 mph82%30.01 "Hg10 mi
8:20 AM52 °FSunny.3 mph88%30.01 "Hg10 mi
7:50 AM50 °FSunny.5 mph88%30.01 "Hg10 mi
7:20 AM50 °FClear.6 mph88%30.01 "Hg10 mi
6:50 AM48 °FClear.5 mph87%30.01 "Hg10 mi
6:20 AM50 °FClear.6 mph88%30.01 "Hg10 mi
5:50 AM50 °FClear.6 mph88%29.98 "Hg10 mi
5:20 AM50 °FLight fog.6 mph88%30.01 "HgN/A
4:20 AM46 °FLight fog.2 mph93%30.01 "HgN/A
Weather by CustomWeather, © 2014

See weather overviewHow to use our weather pages